User: anonymous   Login
Location: Melbourne
(37.8170°S, 144.9670°E)
Time: 06:25:12
(UTC+10:00)
Language:

Aureole 2 Rocket - Orbit

View from above orbital plane
View from above orbital plane
View from above satellite
View from above satellite

Ground track
Ground track

The orbit data is extracted from the following two-line orbital elements,

1 07004U 73107B   15213.82306821  .00016346  00000-0  34916-3 0  9997
2 07004 073.9424 092.2688 0243066 135.9944 275.7372 15.19111481132374
Epoch (UTC): 01 August 2015 19:45:13
Eccentricity: 0.0243066
inclination: 73.9424°
perigee height: 341 km
apogee height: 676 km
right ascension of ascending node: 92.2688°
argument of perigee: 135.9944°
revolutions per day: 15.19111481
mean anomaly at epoch: 275.7372°
orbit number at epoch: 13237

The dashed part of the orbit path shows where the satellite is in the earth's shadow,  

DLR